Location: Buchdorf
(48.7842°N, 10.8275°E)
Time: 23:31:32
(UTC+00:00)

N. Korean satellite - Pass Details

Date: 07 March 2021
Orbit: 453 x 499 km, 97.2° (Epoch: 12 April)

Event Time Altitude Azimuth Distance (km) Brightness Sun altitude
Rises 05:09:43 0° 8° (N) 2,534 10.3 -6.9°
Reaches altitude 10° 05:11:47 10° 3° (N) 1,659 9.3 -6.5°
Maximum altitude 05:15:15 52° 287° (WNW) 609 6.7 -6.0°
Drops below altitude 10° 05:18:46 10° 211° (SSW) 1,671 9.0 -5.4°
Sets 05:20:52 0° 206° (SSW) 2,554 10.0 -5.0°
